Showing default

CHINASAT 18, 44493

Orbit data source: Space-Track

CHINASAT 18, 44493 is a payload satellite owned by PLA SSF (CN) in HEO that was launched on Mon, 19 Aug 2019 UTC via a CHANG ZHENG 3B launch vehicle from the Xichang Space Center, China (XSC). Payloads include a variety of satellites, spacecraft, and rockets equipped with specific instruments for various scientific and technological missions. These include communications satellites like Starlink; space stations such as the ISS; scientific satellites like the Hubble; Earth observation satellites from companies like Planet Labs, Umbra, and HawkEye 360; GPS; miniature CubeSats for education and research; and military/defense satellites.

Loading next visibility...
CHINASAT 18 details
Identifier
44493, 2019-053A
Orbit
HEO
Last TLE update18 hours ago
Origin
Flag of CNPLA SSF (CN / PRC)
ManufacturerCAST
MissionNon-operational Civil Communications
Bus & MotorDFH-4, DFH-4 LAE
Mass~5,250 kg wet, ~2,500 kg dry
Launch date (UTC)
2019-08-19 (5 years ago)
Launch vehicle
CHANG ZHENG 3B
Launch site
Xichang Space Center, China (XSC)
Object type
Payload
Rocket body
Debris
Shape & HBRBox + 2 Pan, 30 m
Radar Cross Section34.063 m², Large (>1 m²)

Expand to show TLE details & history

TLE from 18 hours ago
0 CHINASAT 18
1 44493U 19053A   24348.40724713  .00021318 -23142-6  36629-3 0  9994
2 44493  28.5805  10.0567 6641062 128.1318 312.4198  3.19078128 50655
Epoch: 2024-12-13T09:46Z
Definitive object data (Epoch: 2024-12-13T09:46:26.152Z)
Latitude-0.00003°
Longitude140.88644°
Altitude12,064.915 km
Speed4.772 km/s
True Right ascension00h 40m 16s
True Declination0° 00' 00"
Sunlit
Object was in daylight at TLE epoch
Visualization TLE readout
Latitude-26.80788°
Longitude72.54493°
Altitude22,864.603 km
Speed2.61 km/s
Apparent Right ascension19h 26m 09s
Apparent Declination-32° 15' 01"
Sunlit
Object is in daylight
Visualization observer readout
Local Sidereal Time02:44:07
Azimuth254.027° W
Elevation-33.976°
Doppler factor1
Orbital elements
Apogee altitude26,060.624 km
Perigee altitude169.509 km
Semi-major axis19,493.204 km
Eccentricity0.6641062
Inclination28.5805°
RAAN10.0567°
Arg. of periapsis128.1318°
True anomaly231.83031°
Mean anomaly312.4198°
Eccentric anomaly274.48588°
Mean motion0.79748 °/min
BSTAR0.00036629
Orbital period451.42 mins
Loading maneuver chart data...
Loading historical data...
Loading historical data...
Loading historical data...
Loading historical data...
Loading historical data...
Loading historical data...
Loading historical data...
Other satellites on launch #53 in the year 2019 (2019-08-19 UTC)

CHINASAT 18 Visibility forecast

Observer location: undefined°, undefined

Span
Click to sort rows by Start time (UTC) header in descending order
Start Az.
Max El. time (UTC)
Max El. Az.
Max El.
End time (UTC)
End Az.
173 mins2024-12-14 20:47:16.299Z145.935° SSE2024-12-14 22:57:16.299Z136.306° SSE17.684°2024-12-14 23:40:16.299Z112.766° SE
|